Wind_Speed
23 21 17 17 19 18 16 13 12 12 12 13 13 14 14 18 20 21 19 12 6 3 8 10 8 7 4 5 4 5 6 7 7 8 8 9 10 11 10 11 12 13 12 13 15 15 16 18 19
26 24 19 18 21 20 20 15 10 11 15 16 14 15 17 21 18 19 18 16 13 15 15 9 4 1 2 2 3 5 6 8 10 10 11 12 12 12 12 12 14 15 16 16 16 16 16 17 19
30 26 22 20 24 20 19 18 10 12 12 14 16 14 14 14 14 17 18 24 23 14 13 4 7 8 9 10 8 8 9 12 12 14 14 15 16 16 16 15 16 17 17 17 18 18 18 18 19
31 27 23 23 27 25 26 24 20 16 16 15 17 16 12 10 11 15 14 18 20 22 23 28 18 14 20 15 14 14 14 14 16 17 17 18 18 19 20 21 20 19 20 20 19 19 20 20 21
29 27 25 26 26 27 28 24 20 11 9 12 16 18 18 15 17 17 15 15 16 16 18 14 20 19 18 14 16 19 19 16 19 21 22 21 21 21 22 23 25 24 23 24 24 23 22 22 23
24 29 28 29 27 25 27 28 21 12 13 10 12 17 14 15 18 17 16 13 14 15 17 15 21 19 19 19 20 20 22 24 25 24 22 26 26 26 26 26 26 27 27 28 27 28 27 25 25
21 25 30 28 25 25 26 29 32 25 19 14 16 23 22 20 19 19 18 17 15 15 17 15 15 23 18 17 22 24 25 29 30 29 29 28 28 29 28 29 31 30 30 31 32 32 31 30 29
19 21 27 25 26 16 17 13 13 28 28 14 19 22 26 27 24 22 21 21 19 20 23 21 21 25 24 22 24 27 29 31 33 33 30 32 30 27 30 30 30 34 35 33 33 35 35 34 33
14 20 22 23 26 24 19 18 16 19 14 16 20 21 22 21 21 21 20 18 19 19 22 24 25 28 27 28 30 30 32 34 35 36 36 37 36 39 38 36 35 35 38 35 34 36 39 39 39
10 16 21 20 17 19 18 20 15 14 17 20 22 18 20 18 14 12 16 16 15 15 17 23 26 29 32 32 35 36 35 34 35 37 39 40 41 42 42 42 38 37 38 39 40 40 39 41 43
4 7 8 9 12 17 13 14 17 17 17 17 16 17 17 19 21 21 19 20 19 19 21 23 28 30 30 33 34 35 36 36 37 38 37 37 40 42 43 43 43 42 44 43 43 43 43 45 46
11 10 10 11 13 16 20 17 18 14 10 10 14 17 20 23 26 26 25 24 22 25 29 30 31 33 36 37 37 39 40 38 37 37 40 39 38 38 39 41 44 44 47 44 43 45 46 46 47
14 12 13 15 19 20 19 19 16 7 8 13 18 20 23 26 28 29 29 28 28 33 32 33 35 36 38 40 43 44 46 47 47 44 41 41 42 43 42 42 44 44 47 45 45 48 49 49 48
18 20 19 17 18 18 15 14 12 8 11 18 23 25 26 26 26 25 26 26 30 34 34 34 34 37 41 42 44 46 49 51 52 52 50 47 45 45 48 48 48 48 49 49 48 48 50 51 53
16 16 16 14 14 13 12 12 12 13 19 22 26 26 26 26 27 31 32 32 32 32 33 33 31 35 33 34 37 42 47 51 54 57 57 57 54 50 50 50 50 50 51 52 52 52 52 53 54
13 11 13 10 11 12 14 16 13 19 23 24 26 28 28 29 31 35 37 38 36 32 30 30 28 27 29 32 35 38 42 46 51 52 55 57 58 58 56 54 53 52 51 50 50 53 56 56 53
11 12 12 11 13 15 14 15 21 22 21 24 29 31 34 37 39 40 41 39 38 37 38 37 35 36 37 39 41 41 42 48 51 53 54 55 57 56 56 56 54 54 52 51 54 53 46 50 51
16 17 16 14 15 14 16 18 17 20 24 27 30 33 35 40 42 42 40 41 43 45 46 45 41 42 45 46 48 46 47 48 49 53 55 55 56 59 56 55 54 54 53 52 53 54 63 55 52
18 20 21 17 12 15 18 18 21 23 29 31 33 36 40 39 41 41 42 46 49 51 52 52 52 52 53 52 54 60 63 62 61 56 55 54 58 58 58 55 55 53 52 53 53 53 54 55 54
20 20 18 15 16 19 22 23 26 29 30 31 36 39 40 41 41 42 44 49 53 56 57 58 60 60 58 61 65 67 62 58 55 58 57 57 51 58 57 56 55 55 54 53 54 53 54 52 51
22 20 16 14 19 22 24 25 29 30 33 35 36 39 41 40 42 43 48 53 58 61 65 66 65 65 67 69 67 59 58 60 59 61 61 55 56 54 57 56 56 58 55 55 55 55 54 52 51
22 18 17 18 19 22 26 27 29 33 36 37 38 39 39 41 42 46 51 58 64 66 65 65 67 69 72 62 56 60 59 61 64 66 53 47 45 45 52 54 56 59 57 57 56 55 54 51 51
20 18 19 20 22 25 29 33 35 35 36 37 38 40 41 43 47 51 56 59 59 60 63 63 66 66 56 57 60 63 65 63 62 59 57 46 43 43 40 43 50 57 58 56 56 52 52 52 50
20 21 23 24 25 28 31 36 37 34 35 38 39 38 37 39 44 47 51 57 62 63 62 64 65 58 58 61 64 62 60 57 56 53 54 47 47 44 44 42 44 51 57 56 54 55 52 52 50
21 24 26 29 31 31 34 38 36 37 38 38 35 34 39 42 44 47 50 55 57 58 58 56 53 55 56 59 58 58 56 58 52 52 46 41 37 42 33 35 43 50 55 56 55 56 56 51 49
23 27 29 33 36 38 34 38 38 37 38 38 38 41 43 44 45 46 47 49 51 51 50 45 49 52 50 50 51 51 52 56 50 43 40 37 37 39 33 34 36 42 50 54 54 54 51 45 44
25 28 31 37 40 44 43 41 40 38 40 40 42 45 47 47 46 45 45 48 49 49 46 49 49 50 51 51 51 50 51 49 51 49 44 47 41 39 37 33 34 40 40 48 54 54 49 37 32
29 33 35 36 42 45 44 42 40 42 42 44 46 46 45 45 46 47 47 48 48 50 48 48 49 52 52 51 49 49 50 50 46 48 44 43 41 37 36 33 32 33 34 41 44 50 53 49 39
33 38 38 38 39 43 44 41 41 43 44 44 45 45 46 47 48 50 52 52 53 54 51 49 49 53 54 55 58 55 53 52 50 43 43 41 37 33 35 34 31 29 27 28 37 43 47 48 33
36 34 36 40 40 39 40 43 43 44 43 45 45 47 48 49 50 52 54 54 54 54 53 51 50 53 56 60 59 56 54 58 53 41 39 36 36 32 30 30 25 27 27 24 25 32 35 37 33
Wind_Direction
221 222 211 206 219 223 251 254 262 276 290 303 315 329 337 326 331 329 332 335 34 145 181 165 144 122 90 65 29 349 330 313 307 302 294 289 286 288 287 289 286 281 275 271 270 267 268 271 272
220 220 210 209 224 227 252 263 271 279 286 303 316 325 319 318 328 328 327 311 245 202 214 194 182 246 270 285 321 328 317 306 298 292 289 286 278 276 277 276 278 278 273 270 266 264 264 265 270
219 217 212 209 223 230 253 261 274 287 297 318 318 325 323 320 315 312 320 311 292 214 194 228 257 259 257 269 277 285 287 286 284 285 281 281 280 278 276 271 267 270 271 271 270 270 270 267 265
223 216 213 214 225 229 236 251 268 279 299 314 306 311 315 306 300 305 310 314 330 318 324 321 301 287 276 268 280 282 270 268 270 271 272 275 277 281 281 280 276 274 272 269 270 272 273 273 274
221 214 214 218 230 233 239 253 268 315 323 333 307 305 299 296 300 295 303 304 318 316 300 282 272 300 281 285 302 292 274 269 274 269 269 266 266 269 275 280 284 281 278 278 273 271 271 271 272
228 218 215 222 232 239 243 248 259 301 326 334 319 308 304 287 295 304 312 313 290 286 279 280 279 294 296 298 297 286 277 267 282 268 269 266 268 266 268 269 267 275 278 277 276 273 271 274 275
221 218 214 230 231 246 249 254 247 261 299 322 330 323 309 289 295 315 313 311 294 288 297 288 267 286 285 279 280 278 274 268 273 271 274 279 266 259 261 263 267 268 265 270 274 274 274 273 273
222 211 217 230 236 257 262 278 289 261 268 316 316 314 313 315 321 314 306 302 301 295 289 287 278 277 279 272 268 273 273 275 277 278 279 273 265 264 265 266 263 266 261 258 262 266 268 266 265
219 207 223 224 235 242 258 273 277 268 282 288 290 305 312 312 315 308 308 303 296 285 283 281 281 281 280 283 279 277 274 274 273 275 275 273 270 270 274 273 269 267 265 260 258 259 261 263 263
202 214 225 242 248 252 262 271 288 294 294 293 304 304 311 321 314 313 315 317 312 304 290 285 284 281 283 281 280 280 278 279 277 274 272 271 269 269 269 271 271 268 262 261 262 259 259 261 262
230 228 233 242 233 241 260 272 271 284 291 301 299 303 312 311 316 317 313 308 309 302 297 290 288 287 284 283 286 284 282 282 278 277 275 270 268 267 265 264 264 265 263 262 261 256 257 260 259
245 242 238 245 260 255 258 265 281 284 294 291 298 306 308 305 305 305 305 304 302 293 287 284 281 281 282 281 279 277 276 273 273 275 276 274 271 268 266 265 264 265 266 262 259 256 259 259 259
247 246 241 233 240 249 257 270 274 264 266 280 289 292 293 294 293 293 292 290 284 283 279 275 278 278 276 277 278 277 277 277 276 272 269 271 272 272 268 265 266 266 266 265 261 261 262 262 258
237 233 233 230 244 258 263 259 255 246 276 280 285 287 289 290 287 287 286 285 280 280 284 285 279 276 278 278 277 278 279 278 277 276 274 269 267 267 267 267 265 266 267 267 266 265 265 266 267
236 237 242 237 239 247 257 247 254 263 272 282 286 287 288 288 290 293 296 297 295 294 297 303 305 301 291 285 281 279 279 280 279 279 278 276 272 267 267 267 265 265 266 268 270 270 268 266 265
238 241 239 249 247 250 247 266 268 269 269 277 281 290 294 296 298 301 301 302 306 318 313 308 310 313 308 295 285 279 271 269 270 270 271 272 272 272 268 266 267 268 266 266 266 266 266 262 264
243 250 253 250 253 251 253 254 261 272 286 300 308 306 304 304 303 302 305 311 308 314 316 311 306 300 296 292 285 279 277 275 269 268 267 268 269 268 269 268 266 266 264 264 263 262 268 256 262
243 248 256 256 247 256 256 257 279 295 312 312 305 304 303 304 307 310 305 310 312 315 313 310 301 292 290 290 286 283 281 285 285 276 267 265 265 266 265 267 264 263 262 260 261 261 261 269 266
246 255 262 255 267 274 267 285 295 308 308 305 300 303 305 302 303 305 311 314 314 313 311 304 301 300 296 292 296 300 298 293 292 281 273 270 266 260 260 261 263 260 260 258 257 259 262 263 263
250 245 250 264 270 278 287 298 301 304 303 303 302 304 301 297 301 308 314 313 312 310 309 307 304 302 304 306 304 303 300 301 301 295 287 271 266 265 259 255 258 258 256 256 255 257 258 263 265
246 243 249 258 268 277 286 289 295 301 306 306 301 298 296 300 308 312 311 308 307 307 306 303 304 306 305 306 306 304 306 307 305 301 298 290 279 262 257 253 253 254 253 254 254 254 257 259 261
248 250 258 264 269 278 282 294 298 304 305 302 300 299 302 305 304 303 303 301 300 300 300 302 302 303 304 304 302 305 304 305 305 305 297 278 270 268 260 250 251 252 250 252 252 254 256 258 259
255 260 266 275 285 289 294 296 303 306 306 304 301 300 299 299 296 295 295 295 297 298 297 301 301 306 300 304 307 307 305 304 305 303 294 283 268 261 270 259 251 251 249 250 251 254 258 257 257
262 266 270 274 281 286 293 298 305 306 304 298 294 296 295 292 292 296 299 298 297 296 299 301 303 303 303 305 305 306 304 305 307 299 306 279 274 286 268 261 262 252 248 247 249 251 253 257 257
261 270 276 282 289 296 298 298 303 304 300 296 295 295 296 294 295 299 297 294 291 291 293 297 298 299 303 304 303 303 303 304 308 303 304 285 277 280 287 264 263 256 248 247 246 249 252 259 261
268 277 287 291 293 296 298 298 300 299 297 297 296 298 299 304 305 305 300 291 291 293 296 294 293 298 304 304 302 299 301 300 301 301 287 284 277 279 278 273 270 262 251 248 250 251 252 257 266
275 281 290 294 299 301 302 305 303 303 300 299 302 305 310 310 310 304 299 297 298 299 296 293 295 302 308 310 307 303 305 301 295 294 286 287 287 284 282 277 273 263 255 252 251 253 255 239 257
288 290 293 296 296 298 302 303 304 302 302 306 309 311 310 307 306 301 297 296 296 296 297 296 298 302 308 311 307 302 301 301 298 288 284 281 284 281 286 286 280 276 269 256 248 253 252 252 263
286 289 293 293 292 295 302 302 305 301 303 309 308 307 306 302 300 299 300 300 299 301 304 300 301 303 306 309 311 305 297 295 296 290 283 275 281 274 280 284 282 280 276 271 257 249 255 263 260
281 285 287 290 294 296 296 299 299 302 310 311 306 302 301 303 303 304 304 306 308 307 307 304 300 302 306 312 309 304 299 294 293 287 283 270 269 275 283 282 282 278 275 272 260 247 252 256 259
Height
5886 5888 5892 5893 5892 5887 5880 5883 5884 5885 5887 5889 5893 5895 5895 5891 5893 5895 5895 5897 5896 5896 5895 5894 5894 5894 5895 5894 5895 5896 5896 5897 5897 5897 5898 5897 5897 5898 5897 5898 5898 5898 5897 5896 5896 5896 5895 5895 5895
5884 5887 5890 5891 5888 5887 5879 5880 5883 5886 5887 5889 5892 5893 5892 5891 5894 5893 5894 5893 5894 5893 5896 5896 5895 5895 5894 5893 5894 5895 5896 5896 5897 5896 5895 5896 5896 5896 5895 5895 5896 5896 5896 5895 5894 5893 5893 5893 5893
5881 5884 5887 5888 5885 5885 5880 5878 5880 5885 5887 5890 5891 5892 5894 5891 5893 5893 5895 5893 5893 5892 5892 5895 5894 5894 5894 5894 5894 5894 5895 5896 5895 5894 5894 5893 5894 5894 5894 5893 5892 5893 5893 5892 5892 5892 5891 5890 5890
5879 5883 5886 5886 5883 5883 5880 5876 5878 5884 5886 5888 5890 5892 5894 5893 5893 5892 5897 5896 5896 5897 5894 5894 5891 5891 5893 5892 5892 5892 5893 5892 5892 5891 5890 5890 5890 5891 5891 5891 5890 5889 5889 5888 5888 5888 5888 5887 5888
5876 5880 5883 5883 5881 5882 5881 5881 5879 5881 5886 5889 5888 5889 5893 5892 5891 5892 5893 5896 5894 5891 5891 5890 5888 5890 5890 5889 5889 5889 5890 5889 5888 5887 5887 5886 5886 5886 5886 5886 5887 5887 5886 5886 5885 5884 5884 5883 5883
5874 5877 5878 5879 5881 5882 5882 5883 5882 5882 5883 5887 5888 5886 5889 5890 5888 5888 5890 5892 5891 5891 5889 5888 5887 5887 5887 5886 5885 5884 5883 5884 5882 5881 5880 5881 5881 5881 5881 5881 5880 5881 5881 5881 5880 5880 5880 5879 5878
5870 5874 5876 5875 5882 5881 5882 5882 5882 5883 5881 5883 5885 5882 5881 5883 5885 5885 5885 5888 5888 5887 5885 5884 5884 5885 5884 5881 5879 5877 5877 5877 5877 5875 5874 5875 5874 5874 5874 5875 5875 5874 5874 5874 5874 5874 5874 5874 5873
5867 5871 5872 5875 5878 5880 5882 5880 5879 5881 5880 5881 5882 5882 5876 5873 5879 5879 5880 5881 5882 5882 5878 5877 5880 5878 5876 5875 5874 5873 5871 5870 5869 5868 5868 5869 5868 5868 5868 5868 5868 5868 5866 5866 5866 5867 5867 5866 5865
5866 5869 5870 5875 5877 5878 5880 5880 5880 5879 5879 5879 5879 5878 5874 5873 5873 5875 5874 5876 5876 5876 5874 5873 5872 5870 5869 5867 5867 5866 5865 5864 5862 5861 5860 5860 5861 5860 5859 5859 5860 5860 5860 5858 5858 5857 5858 5858 5859
5866 5868 5871 5874 5876 5877 5879 5877 5876 5877 5876 5874 5873 5872 5872 5870 5873 5872 5869 5870 5870 5870 5869 5867 5865 5863 5861 5860 5858 5857 5857 5856 5855 5854 5852 5851 5851 5850 5850 5850 5849 5852 5852 5850 5850 5849 5849 5850 5850
5867 5870 5871 5872 5874 5875 5876 5876 5875 5875 5873 5872 5870 5869 5870 5870 5868 5865 5864 5862 5862 5862 5862 5860 5857 5855 5853 5852 5850 5848 5847 5846 5844 5843 5842 5843 5842 5841 5841 5841 5841 5841 5842 5841 5840 5840 5839 5840 5840
5867 5869 5870 5871 5872 5873 5873 5874 5873 5873 5873 5871 5869 5869 5868 5865 5863 5861 5859 5857 5855 5854 5854 5853 5852 5849 5846 5843 5840 5837 5835 5836 5835 5834 5832 5831 5831 5831 5831 5831 5830 5830 5830 5830 5828 5829 5829 5830 5829
5865 5867 5869 5868 5868 5868 5869 5869 5868 5870 5870 5869 5867 5866 5865 5862 5859 5857 5855 5853 5850 5846 5845 5845 5844 5842 5840 5835 5832 5830 5827 5824 5822 5822 5822 5821 5821 5820 5819 5820 5820 5819 5819 5819 5818 5818 5817 5817 5817
5862 5863 5864 5865 5864 5864 5865 5865 5865 5867 5866 5864 5862 5861 5859 5857 5854 5851 5849 5846 5842 5838 5835 5832 5832 5831 5828 5827 5824 5822 5820 5816 5814 5812 5810 5809 5809 5809 5808 5809 5810 5809 5808 5807 5807 5807 5807 5806 5804
5860 5861 5861 5861 5861 5861 5861 5863 5863 5864 5862 5860 5856 5856 5854 5852 5849 5844 5841 5839 5836 5833 5831 5828 5826 5822 5821 5819 5817 5813 5809 5805 5802 5800 5798 5796 5797 5799 5799 5799 5798 5799 5798 5796 5796 5795 5793 5792 5791
5858 5859 5859 5860 5860 5860 5860 5859 5860 5857 5856 5856 5853 5850 5847 5845 5842 5839 5834 5830 5829 5828 5826 5822 5818 5814 5809 5804 5803 5801 5797 5792 5789 5785 5784 5782 5781 5782 5785 5785 5786 5786 5785 5785 5783 5781 5778 5776 5777
5857 5857 5857 5858 5858 5858 5859 5857 5851 5852 5852 5850 5846 5843 5839 5836 5833 5830 5827 5826 5822 5818 5815 5812 5807 5802 5798 5795 5790 5788 5784 5781 5776 5771 5770 5769 5768 5767 5768 5771 5772 5772 5773 5773 5770 5768 5761 5763 5765
5853 5853 5854 5855 5855 5854 5852 5849 5850 5848 5846 5844 5840 5836 5833 5829 5826 5824 5820 5815 5810 5806 5803 5800 5796 5791 5785 5780 5776 5773 5769 5766 5763 5760 5758 5757 5755 5753 5752 5755 5757 5757 5758 5759 5756 5754 5750 5753 5754
5850 5850 5850 5851 5851 5848 5845 5846 5844 5843 5841 5838 5833 5829 5826 5823 5820 5816 5810 5804 5799 5795 5791 5785 5780 5776 5772 5769 5764 5758 5753 5748 5744 5742 5739 5739 5739 5739 5738 5738 5740 5741 5742 5744 5742 5742 5741 5741 5742
5847 5847 5847 5846 5845 5844 5840 5840 5838 5837 5835 5832 5826 5823 5819 5816 5812 5806 5801 5794 5789 5784 5779 5774 5766 5760 5756 5752 5746 5739 5733 5730 5727 5722 5719 5719 5719 5719 5723 5724 5725 5726 5725 5728 5728 5729 5728 5728 5727
5844 5844 5844 5844 5841 5839 5837 5837 5834 5832 5828 5824 5820 5816 5812 5808 5803 5797 5792 5786 5780 5773 5767 5759 5752 5746 5741 5736 5731 5725 5720 5715 5711 5705 5700 5696 5697 5699 5701 5705 5707 5710 5711 5712 5714 5715 5715 5716 5715
5839 5840 5839 5838 5838 5837 5834 5833 5829 5826 5821 5816 5812 5807 5803 5799 5795 5789 5783 5777 5771 5763 5754 5747 5739 5733 5728 5722 5717 5712 5706 5701 5695 5690 5685 5681 5682 5680 5680 5685 5688 5692 5697 5697 5700 5701 5702 5704 5704
5836 5835 5835 5834 5833 5831 5828 5825 5822 5819 5813 5807 5802 5798 5794 5791 5787 5782 5776 5768 5760 5752 5744 5737 5730 5724 5717 5711 5706 5699 5692 5686 5680 5676 5670 5666 5666 5667 5665 5666 5670 5676 5680 5683 5686 5687 5689 5690 5691
5832 5831 5830 5829 5828 5827 5823 5819 5816 5811 5806 5799 5795 5791 5788 5784 5778 5772 5765 5758 5749 5741 5734 5727 5720 5714 5708 5701 5695 5688 5680 5674 5669 5663 5656 5652 5652 5652 5652 5653 5654 5659 5664 5667 5671 5672 5675 5677 5678
5827 5827 5825 5823 5821 5820 5816 5812 5809 5805 5799 5793 5790 5785 5780 5774 5769 5764 5758 5749 5739 5731 5725 5718 5711 5705 5700 5692 5684 5677 5669 5662 5657 5652 5648 5644 5643 5643 5640 5640 5642 5644 5648 5652 5655 5658 5660 5664 5666
5822 5820 5819 5814 5812 5811 5810 5806 5803 5797 5792 5786 5781 5775 5769 5765 5760 5753 5744 5735 5729 5722 5716 5710 5703 5697 5690 5681 5674 5666 5658 5650 5646 5643 5641 5638 5635 5634 5632 5630 5631 5632 5635 5640 5645 5646 5649 5653 5654
5817 5815 5813 5807 5804 5799 5796 5793 5789 5786 5780 5776 5771 5764 5758 5753 5746 5738 5729 5721 5715 5710 5704 5698 5691 5684 5677 5668 5661 5653 5646 5640 5634 5631 5631 5629 5627 5625 5625 5621 5622 5623 5624 5627 5631 5635 5637 5640 5644
5810 5807 5805 5802 5794 5789 5786 5783 5779 5774 5770 5765 5760 5755 5749 5741 5733 5725 5718 5710 5703 5697 5692 5686 5679 5671 5664 5657 5648 5640 5633 5628 5623 5620 5618 5617 5616 5616 5615 5614 5613 5613 5613 5615 5618 5624 5627 5629 5632
5802 5797 5795 5793 5789 5783 5779 5777 5771 5766 5762 5758 5752 5745 5737 5730 5724 5716 5707 5700 5693 5687 5682 5676 5668 5661 5652 5645 5636 5627 5620 5614 5610 5606 5604 5604 5605 5605 5605 5605 5605 5604 5604 5604 5607 5611 5616 5620 5625
5794 5792 5789 5784 5781 5776 5772 5769 5764 5758 5754 5748 5741 5734 5727 5720 5712 5705 5698 5690 5683 5675 5669 5663 5657 5649 5640 5631 5621 5612 5605 5599 5595 5591 5591 5592 5594 5595 5596 5596 5596 5596 5596 5595 5596 5598 5603 5609 5613